星链-32633 (STARLINK-32633)

导读

STARLINK-32633是美国太空探索技术公司Starlink星座的成员,于2024年12月13日由美国发射升空,星链星座旨在为全球提供覆盖偏远地区的高速卫星互联网服务。该卫星加入星座后,进一步扩充了星链低轨卫星网络规模,提升星座整体通信覆盖能力与服务容量,助力全球卫星互联服务覆盖范围和稳定性升级。

Basic Information
目录编号:
62306
目录名称:
STARLINK-32633
国际标识:
2024-239F
轨道中心:
EARTH
卫星名称:
星链-32633
卫星全名:
星链-32633 (STARLINK-32633)
卫星状态:
在轨 (已飞行630 天)
发射日期:
2024-12-13 UTC
国别 :
美国 (US)
星等 :
--
Orbit Information
数据来源 国际轨道数据 AOE轨道数据
星历时间 2026-09-03T15:07:11+0800
21小时前
查看轨道信息
2026-09-03T12:00:00+0800
1天前
查看轨道信息
半长轴 6840.829km 6840.9km
偏心率 0.0001314 0.0001309
轨道倾角 53.160° 53.159°
近地点辐角 86.847° 83.169°
升交点赤经 86.305° 86.913°
平近点角 273.269° 278.474°
近地点 461.793km 461.867km
远地点 463.591km 463.659km
周期 93.848分钟 93.849分钟
每日圈数 15.344038 15.343801
Detailed Information
固有亮度:
5
最大亮度:
2.5
卫星平台:
Starlink V1.0
覆盖范围:
全球
运营商:
太空探索技术公司
运营商所在国:
美国
制造商(研发单位):
太空探索技术公司
制造商所在国:
美国
使用方式:
暂无
Satellite Introduction
Starlink 计划是 SpaceX 推出的全球卫星互联网项目,通过发射低轨道卫星,为全球尤其是偏远地区提供高速、低延迟的互联网服务。自 2019 年起,Starlink 已部署数千颗卫星,旨在缩小全球数字鸿沟,推动互联网普及。该项目还为军事、航空等行业提供通信支持,带来广泛经济效益。
2D Orbit Map
3D Orbit Map
Orbit Altitude Analysis Chart
Orbit Inclination Analysis Chart
Orbit Comprehensive Analysis Chart
View Comprehensive Chart
Conjunction Data List
Event ID Objects TCA Miss Dist (km) Collision Risk Probability Collision Risk Index (CRI) Action
CDM_260905-005006-230606-466621
2026-09-05T
00:50:16+0000
0.200 km
中距离
6.197408E-4 高风险 0.91
CDM_260904-082506-230606-466621
2026-09-04T
08:25:30+0000
0.569 km
远距离
9.31428E-5 中风险 0.74
CDM_260904-095906-230606-466621
2026-09-04T
09:59:17+0000
1.200 km
极远距离
8.401948E-6 低风险 0.53
CDM_260905-022406-230606-466621
2026-09-05T
02:24:03+0000
1.787 km
极远距离
2.373743E-6 低风险 0.43
CDM_260904-231606-230606-466621
2026-09-04T
23:16:29+0000
2.001 km
极远距离
1.768381E-6 低风险 0.4
CDM_260905-143105-172706-230621
2026-09-05T
14:31:54+0000
2.458 km
极远距离
1.597935E-6 低风险 0.39
CDM_260904-065106-230606-466621
2026-09-04T
06:51:42+0000
2.196 km
极远距离
1.433831E-6 低风险 0.38
CDM_260904-113306-230606-466621
2026-09-04T
11:33:04+0000
2.894 km
极远距离
9.070992E-7 极低风险 0.34
CDM_260903-121105-315406-230621
2026-09-03T
12:11:40+0000
2.900 km
极远距离
2.903872E-7 极低风险 0.24